Amsterdam, Netherlands

6:27 PM CEST on October 23, 2019 (GMT +0200)
Schiphol

Weather History for EHAM - August, 2019

Change the Weather History Date:

Sunday, August 4, 2019

  Actual Average Record
Temperature  
Mean Temperature 66 °F -  
Max Temperature 76 °F 68 °F 82 °F (2003)
Min Temperature 56 °F 54 °F 48 °F (1996)
Cooling Degree Days 1    
Growing Degree Days 16 (Base 50)    
Moisture  
Dew Point 59 °F    
Average Humidity 76    
Maximum Humidity 100    
Minimum Humidity 48    
Precipitation  
Precipitation 0.00 in - - ()
Sea Level Pressure  
Sea Level Pressure 29.99 in    
Wind  
Wind Speed 3 mph ()    
Max Wind Speed 8 mph    
Max Gust Speed -    
Visibility 7.9 miles    
Events Fog    
Averages and records for this station are not official NWS values.
T = Trace of Precipitation, MM = Missing Value Source: Averaged Metar Reports

Daily Weather History Graph

Daily Weather History Graph

Search for Another Location

Airport or City:

Astronomy

Aug. 04, 2019 Rise Set
Actual Time 6:05 AM CEST 9:27 PM CEST
Civil Twilight 5:24 AM CEST 10:08 PM CEST
Nautical Twilight 4:29 AM CEST 11:03 PM CEST
Astronomical Twilight 3:10 AM CEST 12:19 AM CEST
Moon 10:17 AM CEST (8/4) 11:27 PM CEST (8/4)
Length of Visible Light 16h 43m
Length of Day
15h 21m
Waxing Crescent, 15% of the Moon is Illuminated
Aug 4
Waxing Crescent
Aug 7
First Quarter
Aug 15
Full
Aug 23
Last Quarter
Aug 30
New

Hourly Weather History & Observations

Time (CEST) Temp. Dew Point Humidity Pressure Visibility Wind Dir Wind Speed Gust Speed Precip Events Conditions
12:00 AM 59 °F 56 °F 88% 30.07 in 17 mi North 2.2 mph - -   Partly Cloudy
12:25 AM 59.0 °F 57.2 °F 94% 30.06 in - NE 2.3 mph - N/A   Clear
12:55 AM 57.2 °F 57.2 °F 100% 30.06 in - ENE 2.3 mph - N/A   Clear
1:00 AM 58 °F 56 °F 93% 30.07 in 11 mi NE 2.2 mph - -   Partly Cloudy
1:25 AM 59.0 °F 57.2 °F 94% 30.06 in - NE 2.3 mph - N/A   Clear
1:55 AM 59.0 °F 57.2 °F 94% 30.04 in 6.2 mi NE 1.2 mph - N/A Fog Shallow Fog
2:00 AM 58 °F 57 °F 94% 30.06 in 11 mi NE 2.2 mph - -   Partly Cloudy
2:25 AM 57.2 °F 57.2 °F 100% 30.04 in 6.2 mi NE 1.2 mph - N/A Fog Shallow Fog
2:55 AM 57.2 °F 55.4 °F 94% 30.04 in 6.2 mi Calm Calm - N/A Fog Shallow Fog
3:00 AM 57 °F 56 °F 96% 30.06 in 9 mi Calm Calm - -   Partly Cloudy
3:25 AM 57.2 °F 55.4 °F 94% 30.04 in 6.2 mi NE 1.2 mph - N/A Fog Shallow Fog
3:55 AM 57.2 °F 57.2 °F 100% 30.04 in 6.2 mi Calm Calm - N/A Fog Shallow Fog
4:00 AM 57 °F 57 °F 98% 30.06 in 8 mi Calm Calm - -   Partly Cloudy
4:25 AM 57.2 °F 57.2 °F 100% 30.04 in 6.2 mi NE 1.2 mph - N/A Fog Shallow Fog
4:55 AM 57.2 °F 57.2 °F 100% 30.04 in 6.2 mi NE 1.2 mph - N/A Fog Shallow Fog
5:00 AM 57 °F 56 °F 94% 30.06 in 9 mi Calm Calm - -   Partly Cloudy
5:25 AM 57.2 °F 57.2 °F 100% 30.04 in 6.2 mi NE 1.2 mph - N/A Fog Shallow Fog
5:55 AM 59.0 °F 57.2 °F 94% 30.04 in 6.2 mi SE 3.5 mph - N/A   Mostly Cloudy
6:25 AM 59.0 °F 59.0 °F 100% 30.04 in 6.2 mi East 3.5 mph - N/A   Mostly Cloudy
7:25 AM 60.8 °F 59.0 °F 94% 30.04 in 6.2 mi SE 4.6 mph - N/A   Scattered Clouds
7:55 AM 62.6 °F 59.0 °F 88% 30.04 in 6.2 mi ESE 4.6 mph - N/A   Scattered Clouds
8:00 AM 63 °F 59 °F 83% 30.05 in 12 mi SE 4.5 mph - -   Partly Cloudy
8:25 AM 62.6 °F 59.0 °F 88% 30.04 in 6.2 mi SSE 4.6 mph - N/A   Scattered Clouds
8:55 AM 64.4 °F 59.0 °F 83% 30.04 in 6.2 mi SSE 4.6 mph - N/A   Scattered Clouds
9:25 AM 64.4 °F 59.0 °F 83% 30.04 in 6.2 mi SE 4.6 mph - N/A   Scattered Clouds
9:55 AM 66.2 °F 59.0 °F 78% 30.04 in 6.2 mi South 5.8 mph - N/A   Mostly Cloudy
10:25 AM 68.0 °F 60.8 °F 78% 30.04 in 6.2 mi SSE 6.9 mph - N/A   Partly Cloudy
10:55 AM 69.8 °F 59.0 °F 68% 30.04 in 6.2 mi SSE 6.9 mph - N/A   Partly Cloudy
11:25 AM 69.8 °F 59.0 °F 68% 30.01 in 6.2 mi SSE 5.8 mph - N/A   Partly Cloudy
11:55 AM 69.8 °F 59.0 °F 68% 30.01 in 6.2 mi South 5.8 mph - N/A   Scattered Clouds
12:00 PM 70 °F 58 °F 58% 30.03 in 16 mi South 6.7 mph - -   Partly Cloudy
12:25 PM 71.6 °F 59.0 °F 64% 30.01 in 6.2 mi South 5.8 mph - N/A   Partly Cloudy
12:55 PM 73.4 °F 59.0 °F 61% 30.01 in 6.2 mi SSE 6.9 mph - N/A   Partly Cloudy
1:25 PM 73.4 °F 59.0 °F 61% 30.01 in 6.2 mi South 4.6 mph - N/A   Partly Cloudy
1:55 PM 73.4 °F 59.0 °F 61% 29.98 in 6.2 mi SSE 5.8 mph - N/A   Partly Cloudy
2:25 PM 75.2 °F 59.0 °F 57% 29.98 in 6.2 mi SSE 5.8 mph - N/A   Partly Cloudy
2:55 PM 75.2 °F 60.8 °F 61% 29.98 in 6.2 mi ESE 6.9 mph - N/A   Partly Cloudy
3:00 PM 76 °F 60 °F 48% 29.99 in 17 mi SE 6.7 mph - -   Partly Cloudy
3:25 PM 75.2 °F 60.8 °F 61% 29.98 in 6.2 mi ESE 6.9 mph - N/A   Scattered Clouds
3:55 PM 73.4 °F 57.2 °F 57% 29.98 in 6.2 mi SE 6.9 mph - N/A   Scattered Clouds
4:00 PM 73 °F 58 °F 50% 29.97 in 19 mi SE 6.7 mph - -   Partly Cloudy
4:25 PM 73.4 °F 59.0 °F 61% 29.95 in 6.2 mi SE 8.1 mph - N/A   Scattered Clouds
4:55 PM 75.2 °F 57.2 °F 53% 29.95 in 6.2 mi South 3.5 mph - N/A   Partly Cloudy
5:00 PM 74 °F 59 °F 50% 29.96 in 25 mi South 4.5 mph - -   Partly Cloudy
5:25 PM 73.4 °F 59.0 °F 61% 29.95 in 6.2 mi SSE 5.8 mph - N/A   Partly Cloudy
5:55 PM 75.2 °F 59.0 °F 57% 29.95 in 6.2 mi ESE 5.8 mph - N/A   Partly Cloudy
6:00 PM 74 °F 58 °F 48% 29.95 in 19 mi ESE 6.7 mph - -   Overcast
6:25 PM 75.2 °F 59.0 °F 57% 29.92 in 6.2 mi ESE 4.6 mph - N/A   Partly Cloudy
6:55 PM 73.4 °F 59.0 °F 61% 29.92 in 6.2 mi ESE 5.8 mph - N/A   Partly Cloudy
7:00 PM 74 °F 58 °F 48% 29.94 in 22 mi ESE 6.7 mph - -   Partly Cloudy
7:25 PM 73.4 °F 59.0 °F 61% 29.92 in 6.2 mi East 5.8 mph - N/A   Partly Cloudy
7:55 PM 71.6 °F 60.8 °F 69% 29.92 in 6.2 mi East 4.6 mph - N/A   Partly Cloudy
8:00 PM 72 °F 60 °F 56% 29.93 in 22 mi East 4.5 mph - -   Partly Cloudy
8:25 PM 71.6 °F 59.0 °F 64% 29.92 in - ESE 3.5 mph - N/A   Clear
8:55 PM 69.8 °F 60.8 °F 73% 29.92 in - East 3.5 mph - N/A   Clear
9:00 PM 69 °F 60 °F 66% 29.92 in 28 mi East 4.5 mph - -   Partly Cloudy
9:25 PM 69.8 °F 59.0 °F 68% 29.89 in - Variable 3.5 mph - N/A   Clear
9:55 PM 66.2 °F 60.8 °F 83% 29.89 in - East 4.6 mph - N/A   Clear
10:00 PM 67 °F 60 °F 73% 29.91 in 28 mi East 4.5 mph - -   Partly Cloudy
10:25 PM 66.2 °F 60.8 °F 83% 29.89 in - East 4.6 mph - N/A   Clear
10:55 PM 66.2 °F 62.6 °F 88% 29.89 in - East 5.8 mph - N/A   Clear
11:00 PM 66 °F 62 °F 82% 29.90 in 25 mi East 6.7 mph - -   Partly Cloudy
11:25 PM 68.0 °F 62.6 °F 83% 29.89 in - East 5.8 mph - N/A   Clear
11:55 PM 68.0 °F 60.8 °F 78% 29.89 in 6.2 mi East 5.8 mph - N/A   Partly Cloudy